Location: Acheville
(50.3840°N, 2.8827°E)
Time: 13:03:29
(UTC+00:00)

Cosmos 1934 Rocket - Pass Details

Date: 24 October 2021
Orbit: 938 x 998 km, 83.0° (Epoch: 05 December)

Event Time Altitude Azimuth Distance (km) Brightness Sun altitude
Rises 17:26:31 0° 170° (S) 3,611 7.0 -8.3°
Reaches altitude 10° 17:29:03 10° 166° (SSE) 2,663 6.2 -8.7°
Maximum altitude 17:34:54 52° 92° (E) 1,160 4.1 -9.6°
Drops below altitude 10° 17:40:45 10° 18° (NNE) 2,665 6.1 -10.5°
Sets 17:43:18 0° 13° (NNE) 3,614 6.8 -10.9°
